Content
SEND FEEDBACK

Daily
Averages
Monthly
Summary
Malta

VALLETTA, MALTA


Home > Europe > Malta
Elevation: 299 feet     Latitude: 35 51N     Longitude: 014 29E

WEATHER
 
SELECT A DAY
Number of Records: 310,691;   Date Range: 7/1/96 - 8/10/14
 
SHARE

PRINT THIS DATA

[ ← Previous Day ]
WEATHER ALMANAC - FEBRUARY 12, 2014
[ Next Day → ]
[ °C ]   °F
Weather ElementAverageHighLow
Temperature54.1 °F59 °F (11:45 am)50 °F (3:02 am)
Dewpoint45.2 °F49 °F (10:00 pm)41 °F (1:15 am)
Humidity71.4 %88 % (9:45 pm)46 % (1:00 pm)
Barometer29.94 in29.99 in (10:00 am)29.89 in (12:09 am)
Wind Speed15.8 mph25.3 mph (12:09 am)
Wind Gust35.7 mph (2:30 am)
Weather ElementAverage
Visibility6.5 mi
Wind DirectionWNW (294.4 °)

Weather ElementTotal
Precipitation---
Heating Degree Days10.5 (Base 65)
Growing Degree Days4.5 (Base 50)
Averaged from 70 records on February 12, 2014
WEATHER CONDITIONS BREAKOUT
WIND DIRECTION BREAKOUT
WEATHER BY HOUR - FEBRUARY 12, 2014
[ °C ]   °F
Local TimeTemperatureDewpointHumidityBarometerVisibilityWind DirectionWind SpeedGust SpeedPrecipitationEventsConditions
12:09 AM53.6 °F46.4 °F77 %29.89 in6.2 miNW (310°)25.3 mphRainRain Showers
12:10 AM53.6 °F46.4 °F77 %29.89 in6.2 miNW (310°)25.3 mphRainRain
12:13 AM53.6 °F46.4 °F77 %29.89 in4.3 miNW (310°)24.2 mphRainRain
12:15 AM53.6 °F46.4 °F77 %29.89 inNW (310°)25.3 mphRainHeavy Rain
12:34 AM53.6 °F46.4 °F77 %29.89 in6.2 miNW (310°)24.2 mphOvercast
12:45 AM53.6 °F44.6 °F72 %29.89 in6.2 miNW (310°)24.2 mphOvercast
1:00 AM54.0 °F44.0 °F59 %29.90 in10.0 miNW (310°)25.3 mphPartly Cloudy
1:15 AM53.6 °F41.0 °F62 %29.89 inNW (310°)20.7 mphClear
1:45 AM53.6 °F41.0 °F62 %29.89 in6.2 miNW (320°)20.7 mphScattered Clouds
2:15 AM53.6 °F42.8 °F67 %29.89 in6.2 miNW (310°)19.6 mph33.4 mphMostly Cloudy
2:30 AM53.6 °F44.6 °F72 %29.89 in5.6 miWNW (300°)24.2 mph35.7 mphRainLight Rain
2:45 AM51.8 °F44.6 °F76 %29.92 in6.2 miWNW (300°)24.2 mph35.7 mphDrizzle
3:02 AM50.0 °F44.6 °F82 %29.92 inNNW (330°)21.9 mphRainRain
3:06 AM50.0 °F44.6 °F82 %29.92 inNNW (330°)20.7 mph32.2 mphLight Drizzle
3:08 AM50.0 °F44.6 °F82 %29.92 inNW (320°)18.4 mphDrizzle
3:09 AM50.0 °F44.6 °F82 %29.92 inNW (320°)18.4 mphRainRain
3:11 AM50.0 °F44.6 °F82 %29.92 in3.1 miNW (320°)18.4 mphMostly Cloudy
3:15 AM50.0 °F46.4 °F87 %29.92 in6.2 miNW (310°)16.1 mphScattered Clouds
3:45 AM51.8 °F44.6 °F76 %29.92 in6.2 miNW (310°)21.9 mphScattered Clouds
4:00 AM53.0 °F45.0 °F65 %29.92 in7.0 miWNW (300°)21.9 mphRainLight Rain
4:15 AM53.6 °F46.4 °F77 %29.92 in6.2 miWNW (300°)19.6 mphScattered Clouds
4:45 AM51.8 °F46.4 °F82 %29.92 in6.2 miWNW (300°)18.4 mphPartly Cloudy
5:15 AM53.6 °F44.6 °F72 %29.92 in6.2 miWNW (300°)15.0 mphScattered Clouds
5:45 AM53.6 °F44.6 °F72 %29.92 in6.2 miWNW (300°)15.0 mphScattered Clouds
6:15 AM51.8 °F44.6 °F76 %29.95 in6.2 miWNW (300°)15.0 mphScattered Clouds
6:45 AM51.8 °F44.6 °F76 %29.95 in6.2 miWNW (300°)17.3 mphRainLight Rain
7:00 AM52.0 °F45.0 °F68 %29.96 in7.0 miWNW (290°)15.0 mphRainLight Rain
7:15 AM51.8 °F44.6 °F76 %29.95 in6.2 miWNW (300°)13.8 mphScattered Clouds
7:45 AM53.6 °F44.6 °F72 %29.95 in6.2 miWNW (300°)12.7 mphScattered Clouds
8:15 AM53.6 °F44.6 °F72 %29.95 in6.2 miWNW (300°)12.7 mphScattered Clouds
8:45 AM55.4 °F44.6 °F67 %29.98 in6.2 miWNW (290°)15.0 mphPartly Cloudy
9:15 AM55.4 °F44.6 °F67 %29.98 in6.2 miWNW (290°)13.8 mphPartly Cloudy
9:45 AM57.2 °F44.6 °F63 %29.98 in6.2 miWNW (290°)13.8 mphPartly Cloudy
10:00 AM57.0 °F44.0 °F53 %29.99 in12.0 miWNW (290°)13.8 mphPartly Cloudy
10:15 AM55.4 °F42.8 °F63 %29.98 in6.2 miWNW (290°)13.8 mphScattered Clouds
10:45 AM57.2 °F44.6 °F63 %29.98 in6.2 miWest (280°)15.0 mphScattered Clouds
11:15 AM57.2 °F44.6 °F63 %29.98 in6.2 miWest (280°)16.1 mphScattered Clouds
11:45 AM59.0 °F44.6 °F59 %29.98 in6.2 miWest (280°)17.3 mphScattered Clouds
12:15 PM59.0 °F44.6 °F59 %29.98 in6.2 miWest (280°)17.3 mphScattered Clouds
12:45 PM59.0 °F44.6 °F59 %29.95 in6.2 miWest (280°)17.3 mphScattered Clouds
1:00 PM59.0 °F44.0 °F46 %29.96 in12.0 miWest (270°)16.1 mph
1:15 PM59.0 °F44.6 °F59 %29.95 in6.2 miWNW (290°)16.1 mphPartly Cloudy
1:45 PM59.0 °F44.6 °F59 %29.95 in6.2 miWest (280°)13.8 mphPartly Cloudy
2:15 PM59.0 °F44.6 °F59 %29.95 in6.2 miWest (260°)15.0 mphScattered Clouds
2:45 PM57.2 °F42.8 °F59 %29.95 in6.2 miWest (260°)11.5 mphMostly Cloudy
3:15 PM57.2 °F42.8 °F59 %29.95 in6.2 miWest (270°)11.5 mphMostly Cloudy
3:45 PM57.2 °F42.8 °F59 %29.95 in6.2 miWest (270°)13.8 mphScattered Clouds
4:00 PM56.0 °F44.0 °F54 %29.95 in12.0 miWest (260°)11.5 mphRainLight Rain Showers
4:15 PM57.2 °F44.6 °F63 %29.95 in6.2 miWest (260°)11.5 mphScattered Clouds
4:45 PM55.4 °F46.4 °F72 %29.95 in6.2 miWSW (240°)16.1 mphScattered Clouds
5:15 PM53.6 °F46.4 °F77 %29.95 in6.2 miWSW (240°)6.9 mphScattered Clouds
5:45 PM55.4 °F46.4 °F72 %29.92 in6.2 miWest (270°)10.4 mphScattered Clouds
6:15 PM55.4 °F44.6 °F67 %29.95 in6.2 miWest (270°)11.5 mphScattered Clouds
6:45 PM55.4 °F44.6 °F67 %29.95 in6.2 miWNW (290°)12.7 mphScattered Clouds
7:00 PM55.0 °F46.0 °F62 %29.96 in12.0 miWNW (290°)12.7 mphPartly Cloudy
7:15 PM55.4 °F44.6 °F67 %29.95 in6.2 miWNW (290°)12.7 mphPartly Cloudy
7:45 PM55.4 °F44.6 °F67 %29.95 in6.2 miWest (280°)10.4 mphPartly Cloudy
8:15 PM55.4 °F46.4 °F72 %29.95 in6.2 miWNW (290°)11.5 mphPartly Cloudy
8:45 PM55.4 °F46.4 °F72 %29.95 in6.2 miWest (280°)11.5 mphPartly Cloudy
9:15 PM51.8 °F46.4 °F82 %29.95 in6.2 miWNW (300°)13.8 mphPartly Cloudy
9:45 PM51.8 °F48.2 °F88 %29.95 in6.2 miWNW (290°)9.2 mphPartly Cloudy
10:00 PM52.0 °F49.0 °F84 %29.96 in9.0 miWNW (290°)10.4 mphRainLight Rain
10:15 PM53.6 °F48.2 °F82 %29.95 in6.2 miWNW (300°)11.5 mphRainLight Rain Showers
10:39 PM51.8 °F48.2 °F88 %29.95 in6.2 miWNW (300°)10.4 mphRainRain
10:45 PM51.8 °F48.2 °F88 %29.95 in6.2 miWNW (300°)10.4 mphRainRain
11:02 PM51.8 °F46.4 °F82 %29.95 in4.3 miNW (310°)13.8 mph25.3 mphRainRain
11:03 PM51.8 °F46.4 °F82 %29.95 in3.7 miNW (310°)13.8 mph25.3 mphRainLight Rain
11:05 PM51.8 °F46.4 °F82 %29.95 inNW (310°)12.7 mph25.3 mphRainLight Rain
11:15 PM51.8 °F48.2 °F88 %29.95 in6.2 miNW (320°)6.9 mphMostly Cloudy
11:45 PM51.8 °F48.2 °F88 %29.95 in6.2 miNNW (330°)10.4 mphPartly Cloudy
Hourly data recorded from LMML, located miles away from Valletta, Malta







STORIES FROM OUR PARTNERS